| time (UTC) | temp F | wind direction | speed MPH | gust MPH | rain 1hr in | rain 24hr in | rain mn in | humidity % | barometer mb |
| 20260507103515 | 64 | 0.0 | 0.0 | 0.00 | 0.00 | 0.00 | 88 | 978.4 | |
| 20260507102516 | 64 | 0.0 | 0.0 | 0.00 | 0.00 | 0.00 | 88 | 978.4 | |
| 20260507101536 | 65 | 0.0 | 0.0 | 0.00 | 0.00 | 0.00 | 88 | 978.5 | |
| 20260507100516 | 65 | 0.0 | 0.0 | 0.00 | 0.00 | 0.00 | 88 | 978.6 | |
| 20260507095516 | 65 | 0.0 | 0.0 | 0.00 | 0.00 | 0.00 | 89 | 978.6 | |
| 20260507094516 | 65 | 0.0 | 0.0 | 0.00 | 0.00 | 0.00 | 89 | 978.7 | |
| 20260507093535 | 65 | 0.0 | 0.0 | 0.00 | 0.00 | 0.00 | 89 | 978.8 | |
| 20260507092556 | 65 | 0.0 | 0.0 | 0.00 | 0.00 | 0.00 | 89 | 978.8 | |
| 20260507091516 | 65 | 0.0 | 0.0 | 0.00 | 0.00 | 0.00 | 89 | 978.9 | |
| 20260507090516 | 65 | 0.0 | 0.0 | 0.00 | 0.00 | 0.00 | 89 | 979.0 | |
| 20260507085536 | 66 | 0.0 | 0.0 | 0.00 | 0.00 | 0.00 | 89 | 979.1 | |
| 20260507084518 | 66 | 0.0 | 0.0 | 0.00 | 0.00 | 0.00 | 88 | 979.1 | |
| 20260507083537 | 66 | 0.0 | 0.0 | 0.00 | 0.00 | 0.00 | 88 | 979.1 | |
| 20260507082517 | 66 | 0.0 | 0.0 | 0.00 | 0.00 | 0.00 | 88 | 979.1 | |
| 20260507081517 | 67 | 0.0 | 0.0 | 0.00 | 0.00 | 0.00 | 88 | 979.1 | |
| 20260507080517 | 67 | 0.0 | 0.0 | 0.00 | 0.00 | 0.00 | 88 | 979.0 | |
| 20260507075517 | 68 | 0.0 | 0.0 | 0.00 | 0.00 | 0.00 | 88 | 979.0 | |
| 20260507074516 | 68 | 0.0 | 0.0 | 0.00 | 0.00 | 0.00 | 88 | 979.0 | |
| 20260507073516 | 69 | 0.0 | 0.0 | 0.00 | 0.00 | 0.00 | 88 | 978.9 | |
| 20260507072537 | 69 | 0.0 | 0.0 | 0.00 | 0.00 | 0.00 | 88 | 978.7 | |
| 20260507071537 | 70 | 0.0 | 0.0 | 0.00 | 0.00 | 0.00 | 88 | 978.5 | |
| 20260507070516 | 70 | 0.0 | 0.0 | 0.00 | 0.00 | 0.00 | 88 | 978.4 | |
| 20260507065517 | 70 | 0.0 | 0.0 | 0.00 | 0.00 | 0.00 | 88 | 978.2 | |
| 20260507064516 | 71 | 0.0 | 0.0 | 0.00 | 0.00 | 0.00 | 88 | 978.1 | |
| 20260507063516 | 71 | 0.0 | 4.0 | 0.00 | 0.00 | 0.00 | 89 | 977.9 | |
| 20260507062516 | 71 | 0.0 | 4.0 | 0.00 | 0.00 | 0.00 | 89 | 977.8 | |
| 20260507061516 | 71 | 0.0 | 0.0 | 0.00 | 0.00 | 0.00 | 89 | 977.8 | |
| 20260507060537 | 71 | 0.0 | 3.0 | 0.00 | 0.00 | 0.00 | 89 | 977.6 | |
| 20260507055517 | 71 | 124 | 0.0 | 3.0 | 0.00 | 0.00 | 0.00 | 89 | 977.5 |
| 20260507054516 | 71 | 0.0 | 0.0 | 0.00 | 0.00 | 0.00 | 89 | 977.4 | |
| 20260507053516 | 71 | 0.0 | 4.0 | 0.00 | 0.00 | 0.00 | 89 | 977.3 | |
| 20260507052516 | 71 | 124 | 2.0 | 5.0 | 0.00 | 0.00 | 0.00 | 89 | 977.2 |
| 20260507051517 | 71 | 124 | 2.0 | 7.0 | 0.00 | 0.00 | 0.00 | 89 | 977.0 |
| 20260507050516 | 71 | 148 | 3.0 | 6.0 | 0.00 | 0.00 | 0.00 | 89 | 976.9 |
| 20260507045517 | 71 | 126 | 2.0 | 6.0 | 0.00 | 0.00 | 0.00 | 89 | 976.8 |
| 20260507044519 | 72 | 103 | 1.0 | 5.0 | 0.00 | 0.00 | 0.00 | 89 | 976.8 |
| 20260507043517 | 72 | 103 | 0.0 | 5.0 | 0.00 | 0.00 | 0.00 | 89 | 976.6 |
| 20260507042517 | 72 | 104 | 2.0 | 5.0 | 0.00 | 0.00 | 0.00 | 88 | 976.4 |
| 20260507041538 | 72 | 107 | 2.0 | 6.0 | 0.00 | 0.00 | 0.00 | 87 | 976.3 |
| 20260507040538 | 73 | 100 | 3.0 | 8.0 | 0.00 | 0.00 | 0.00 | 87 | 976.2 |
| 20260507035538 | 73 | 107 | 2.0 | 9.0 | 0.00 | 0.00 | 0.00 | 86 | 976.1 |
| 20260507034517 | 73 | 103 | 3.0 | 8.0 | 0.00 | 0.00 | 0.00 | 85 | 976.0 |
| 20260507033517 | 74 | 107 | 3.0 | 5.0 | 0.00 | 0.00 | 0.00 | 85 | 975.9 |
| 20260507032517 | 74 | 117 | 2.0 | 9.0 | 0.00 | 0.00 | 0.00 | 85 | 975.8 |
| 20260507031517 | 74 | 104 | 3.0 | 9.0 | 0.00 | 0.00 | 0.00 | 85 | 975.8 |
| 20260507030538 | 74 | 72 | 3.0 | 9.0 | 0.00 | 0.00 | 0.00 | 84 | 975.8 |
| 20260507025517 | 74 | 79 | 4.0 | 9.0 | 0.00 | 0.00 | 0.00 | 84 | 975.7 |
| 20260507024516 | 75 | 98 | 4.0 | 8.0 | 0.00 | 0.00 | 0.00 | 84 | 975.7 |
| 20260507023516 | 75 | 96 | 4.0 | 10.0 | 0.00 | 0.00 | 0.00 | 83 | 975.7 |
| 20260507022516 | 75 | 77 | 3.0 | 10.0 | 0.00 | 0.00 | 0.00 | 82 | 975.7 |
| 20260507021516 | 76 | 99 | 3.0 | 9.0 | 0.00 | 0.00 | 0.00 | 82 | 975.7 |
| 20260507020516 | 76 | 94 | 3.0 | 8.0 | 0.00 | 0.00 | 0.00 | 81 | 975.7 |
| 20260507015517 | 77 | 67 | 3.0 | 9.0 | 0.00 | 0.00 | 0.00 | 80 | 975.7 |
| 20260507014536 | 78 | 70 | 4.0 | 9.0 | 0.00 | 0.00 | 0.00 | 78 | 975.8 |
| 20260507013516 | 79 | 92 | 3.0 | 9.0 | 0.00 | 0.00 | 0.00 | 78 | 975.7 |
| 20260507012516 | 80 | 59 | 3.0 | 9.0 | 0.00 | 0.00 | 0.00 | 77 | 975.6 |
| 20260507011516 | 80 | 45 | 4.0 | 9.0 | 0.00 | 0.00 | 0.00 | 72 | 975.7 |
| 20260507010516 | 81 | 90 | 4.0 | 10.0 | 0.00 | 0.00 | 0.00 | 71 | 975.7 |
| 20260507005516 | 80 | 100 | 4.0 | 10.0 | 0.00 | 0.00 | 0.00 | 75 | 975.7 |
| 20260507004517 | 81 | 83 | 3.0 | 9.0 | 0.00 | 0.00 | 0.00 | 73 | 975.7 |
| 20260507003517 | 81 | 57 | 3.0 | 8.0 | 0.00 | 0.00 | 0.00 | 72 | 975.7 |
| 20260507002517 | 81 | 106 | 4.0 | 8.0 | 0.00 | 0.00 | 0.00 | 72 | 975.8 |
| 20260507001517 | 80 | 110 | 4.0 | 9.0 | 0.00 | 0.00 | 0.00 | 71 | 976.0 |
| 20260507000517 | 80 | 89 | 4.0 | 11.0 | 0.00 | 0.00 | 0.00 | 75 | 976.0 |
| 20260506235517 | 81 | 99 | 5.0 | 11.0 | 0.00 | 0.00 | 0.00 | 74 | 976.0 |
| 20260506234516 | 82 | 53 | 5.0 | 12.0 | 0.00 | 0.00 | 0.00 | 72 | 976.1 |
| 20260506233516 | 82 | 74 | 5.0 | 12.0 | 0.00 | 0.00 | 0.00 | 66 | 976.3 |
| 20260506232516 | 82 | 107 | 5.0 | 9.0 | 0.00 | 0.00 | 0.00 | 65 | 976.5 |
| 20260506231516 | 82 | 109 | 4.0 | 9.0 | 0.00 | 0.00 | 0.00 | 67 | 976.5 |
| 20260506230516 | 81 | 110 | 4.0 | 8.0 | 0.00 | 0.00 | 0.00 | 69 | 976.6 |
| 20260506225516 | 81 | 112 | 3.0 | 8.0 | 0.00 | 0.00 | 0.00 | 67 | 976.6 |
| 20260506224537 | 81 | 103 | 3.0 | 8.0 | 0.00 | 0.00 | 0.00 | 69 | 976.7 |
| 20260506223516 | 80 | 128 | 2.0 | 8.0 | 0.00 | 0.00 | 0.00 | 69 | 976.6 |
| 20260506222516 | 80 | 115 | 4.0 | 9.0 | 0.00 | 0.00 | 0.00 | 66 | 976.6 |
| 20260506221516 | 80 | 117 | 4.0 | 9.0 | 0.00 | 0.00 | 0.00 | 67 | 976.8 |
| 20260506220537 | 81 | 127 | 5.0 | 9.0 | 0.00 | 0.00 | 0.00 | 65 | 976.9 |
| 20260506215516 | 80 | 106 | 3.0 | 8.0 | 0.00 | 0.00 | 0.00 | 67 | 977.1 |
| 20260506214516 | 79 | 96 | 3.0 | 8.0 | 0.00 | 0.00 | 0.00 | 72 | 977.2 |
| 20260506213516 | 79 | 52 | 3.0 | 8.0 | 0.00 | 0.00 | 0.00 | 73 | 977.3 |
| 20260506212516 | 79 | 63 | 4.0 | 8.0 | 0.00 | 0.00 | 0.00 | 76 | 977.2 |
| 20260506211517 | 79 | 71 | 3.0 | 8.0 | 0.00 | 0.00 | 0.00 | 76 | 977.3 |
| 20260506210516 | 78 | 59 | 3.0 | 8.0 | 0.00 | 0.00 | 0.00 | 76 | 977.4 |
| 20260506205516 | 78 | 83 | 3.0 | 8.0 | 0.00 | 0.00 | 0.00 | 77 | 977.4 |
| 20260506204538 | 78 | 72 | 2.0 | 8.0 | 0.00 | 0.00 | 0.00 | 78 | 977.4 |
| 20260506203518 | 78 | 59 | 3.0 | 9.0 | 0.00 | 0.00 | 0.00 | 75 | 977.5 |
| 20260506202517 | 78 | 81 | 2.0 | 8.0 | 0.00 | 0.00 | 0.00 | 77 | 977.3 |
| 20260506201518 | 78 | 62 | 3.0 | 8.0 | 0.00 | 0.00 | 0.00 | 78 | 977.2 |
| 20260506200517 | 78 | 65 | 3.0 | 8.0 | 0.00 | 0.00 | 0.00 | 78 | 977.2 |
| 20260506195538 | 77 | 50 | 2.0 | 8.0 | 0.00 | 0.00 | 0.00 | 78 | 977.2 |
| 20260506194537 | 77 | 47 | 2.0 | 7.0 | 0.00 | 0.00 | 0.00 | 78 | 977.4 |
| 20260506193517 | 77 | 50 | 1.0 | 5.0 | 0.00 | 0.00 | 0.00 | 78 | 977.5 |
| 20260506192516 | 76 | 52 | 1.0 | 5.0 | 0.00 | 0.00 | 0.00 | 79 | 977.5 |
| 20260506191517 | 75 | 47 | 2.0 | 5.0 | 0.00 | 0.00 | 0.00 | 79 | 977.5 |
| 20260506190516 | 76 | 51 | 2.0 | 4.0 | 0.00 | 0.00 | 0.00 | 79 | 977.5 |
| 20260506185516 | 75 | 220 | 1.0 | 4.0 | 0.00 | 0.00 | 0.00 | 78 | 977.6 |
| 20260506184516 | 74 | 229 | 0.0 | 4.0 | 0.00 | 0.00 | 0.00 | 78 | 977.7 |
| 20260506183516 | 74 | 229 | 0.0 | 3.0 | 0.00 | 0.00 | 0.00 | 78 | 977.5 |
| 20260506182537 | 74 | 229 | 1.0 | 4.0 | 0.00 | 0.00 | 0.00 | 78 | 977.3 |
| 20260506181517 | 73 | 230 | 1.0 | 4.0 | 0.00 | 0.00 | 0.00 | 79 | 977.3 |
| 20260506180517 | 72 | 0.0 | 0.0 | 0.00 | 0.00 | 0.00 | 80 | 977.1 | |
| 20260506175557 | 71 | 0.0 | 3.0 | 0.00 | 0.00 | 0.00 | 81 | 977.0 | |
| 20260506174518 | 70 | 231 | 1.0 | 3.0 | 0.00 | 0.00 | 0.00 | 84 | 977.0 |
| 20260506173518 | 69 | 231 | 1.0 | 2.0 | 0.00 | 0.00 | 0.00 | 85 | 976.9 |
| 20260506172518 | 69 | 0.0 | 4.0 | 0.00 | 0.00 | 0.00 | 86 | 976.8 | |
| 20260506171518 | 68 | 231 | 0.0 | 2.0 | 0.00 | 0.00 | 0.00 | 87 | 976.7 |
| 20260506170518 | 67 | 0.0 | 0.0 | 0.00 | 0.00 | 0.00 | 88 | 976.6 | |
| 20260506165518 | 66 | 0.0 | 0.0 | 0.00 | 0.00 | 0.00 | 88 | 976.6 | |
| 20260506164539 | 65 | 0.0 | 3.0 | 0.00 | 0.00 | 0.00 | 88 | 976.5 | |
| 20260506163518 | 65 | 232 | 0.0 | 3.0 | 0.00 | 0.00 | 0.00 | 89 | 976.3 |
| 20260506162518 | 65 | 0.0 | 4.0 | 0.00 | 0.00 | 0.00 | 88 | 976.0 | |
| 20260506161539 | 65 | 232 | 2.0 | 5.0 | 0.00 | 0.00 | 0.00 | 89 | 976.0 |
| 20260506160518 | 64 | 232 | 2.0 | 5.0 | 0.00 | 0.00 | 0.00 | 89 | 975.9 |
| 20260506155539 | 64 | 232 | 1.0 | 5.0 | 0.00 | 0.00 | 0.00 | 89 | 975.7 |
| 20260506154517 | 65 | 232 | 2.0 | 4.0 | 0.00 | 0.00 | 0.00 | 89 | 975.6 |
| 20260506153517 | 65 | 232 | 0.0 | 4.0 | 0.00 | 0.00 | 0.00 | 89 | 975.5 |
| 20260506152518 | 65 | 233 | 1.0 | 5.0 | 0.00 | 0.00 | 0.00 | 89 | 975.4 |
| 20260506151518 | 65 | 233 | 3.0 | 5.0 | 0.00 | 0.00 | 0.00 | 90 | 975.5 |
| 20260506150517 | 65 | 0.0 | 0.0 | 0.00 | 0.00 | 0.00 | 90 | 975.3 | |
| 20260506145517 | 65 | 0.0 | 0.0 | 0.00 | 0.00 | 0.00 | 90 | 975.2 | |
| 20260506144537 | 65 | 0.0 | 0.0 | 0.00 | 0.00 | 0.00 | 90 | 975.2 | |
| 20260506143516 | 65 | 0.0 | 0.0 | 0.00 | 0.00 | 0.00 | 90 | 975.2 | |
| 20260506142516 | 65 | 0.0 | 0.0 | 0.00 | 0.00 | 0.00 | 89 | 975.2 | |
| 20260506141557 | 65 | 0.0 | 0.0 | 0.00 | 0.00 | 0.00 | 89 | 975.2 | |
| 20260506140516 | 65 | 0.0 | 0.0 | 0.00 | 0.00 | 0.00 | 89 | 975.2 | |
| 20260506135516 | 65 | 0.0 | 0.0 | 0.00 | 0.00 | 0.00 | 89 | 975.1 | |
| 20260506134516 | 65 | 0.0 | 0.0 | 0.00 | 0.00 | 0.00 | 89 | 975.1 | |
| 20260506133516 | 65 | 0.0 | 0.0 | 0.00 | 0.00 | 0.00 | 89 | 975.2 | |
| 20260506132516 | 66 | 0.0 | 0.0 | 0.00 | 0.00 | 0.00 | 88 | 975.3 | |
| 20260506131516 | 66 | 0.0 | 1.0 | 0.00 | 0.00 | 0.00 | 88 | 975.5 | |
| 20260506130516 | 66 | 0.0 | 0.0 | 0.00 | 0.00 | 0.00 | 88 | 975.6 | |
| 20260506125516 | 66 | 0.0 | 0.0 | 0.00 | 0.00 | 0.00 | 88 | 975.5 | |
| 20260506124516 | 66 | 0.0 | 4.0 | 0.00 | 0.00 | 0.00 | 88 | 975.4 | |
| 20260506123516 | 66 | 235 | 2.0 | 4.0 | 0.00 | 0.00 | 0.00 | 88 | 975.2 |
| 20260506122516 | 66 | 235 | 1.0 | 5.0 | 0.00 | 0.00 | 0.00 | 88 | 975.3 |
| 20260506121516 | 67 | 236 | 2.0 | 5.0 | 0.00 | 0.00 | 0.00 | 88 | 975.4 |
| 20260506120516 | 67 | 238 | 3.0 | 5.0 | 0.00 | 0.00 | 0.00 | 87 | 975.6 |
| 20260506115516 | 67 | 0.0 | 0.0 | 0.00 | 0.00 | 0.00 | 87 | 975.7 | |
| 20260506114518 | 67 | 0.0 | 4.0 | 0.00 | 0.00 | 0.00 | 88 | 975.8 | |
| 20260506113518 | 66 | 222 | 0.0 | 4.0 | 0.00 | 0.00 | 0.00 | 88 | 976.1 |
| 20260506112518 | 66 | 0.0 | 0.0 | 0.00 | 0.00 | 0.00 | 89 | 976.0 | |
| 20260506111538 | 66 | 0.0 | 0.0 | 0.00 | 0.00 | 0.00 | 89 | 976.2 | |
| 20260506110518 | 66 | 0.0 | 0.0 | 0.00 | 0.00 | 0.00 | 89 | 976.5 | |
| 20260506105538 | 66 | 0.0 | 0.0 | 0.00 | 0.00 | 0.00 | 89 | 976.5 | |
| 20260506104558 | 66 | 0.0 | 0.0 | 0.00 | 0.00 | 0.00 | 89 | 976.6 |